Location: Puketoi
(40.5833°S, 176.0167°E)
Time: 12:30:04
(UTC+00:00)

Cosmos 2151 Rocket - Pass Details

Date: 08 February 2023
Orbit: 616 x 641 km, 82.5° (Epoch: 30 March)

Event Time Altitude Azimuth Distance (km) Brightness Sun altitude
Rises 15:54:50 0° 196° (SSW) 2,933 7.3 -17.0°
Reaches altitude 10° 15:57:11 10° 203° (SSW) 2,016 6.4 -16.6°
Maximum altitude 16:01:21 41° 272° (W) 918 4.0 -16.0°
Enters shadow 16:03:11 27° 322° (NW) 1,205 4.5 -15.7°
